Regional Weather Roundup
Issued by NWS

Home | Current Version | Previous Version | Text Only | Print | Product List | Glossary On
Versions: 1 2 3 4 5 6 7 8 9 10 11 12 13 14 15 16 17 18 19 20 21 22 23 24 25 26 27 28 29 30 31 32 33 34 35 36 37 38 39 40 41 42 43 44 45 46 47 48 49 50
000
ASUS43 KMPX 232210
RWRMN
WEATHER ROUNDUP FOR MINNESOTA
NATIONAL WEATHER SERVICE TWIN CITIES/CHANHASSEN MN
500 PM CDT SAT SEP 23 2017


NOTE: "FAIR" INDICATES FEW OR NO CLOUDS BELOW 12,000 FEET WITH NO
SIGNIFICANT WEATHER AND/OR OBSTRUCTIONS TO VISIBILITY. N/A MEANS
CURRENT SKY AND/OR WEATHER CONDITIONS ARE NOT AVAILABLE.

MNZ060>063-068>070-232300-
   Twin Cities Metro

CITY           SKY/WX    TMP DP  RH WIND       PRES   REMARKS
TWIN CITIES    CLOUDY    87  70  56 S8        29.93R HX  92
ST PAUL        CLOUDY    84  71  65 S3        29.93R
CRYSTAL        CLOUDY    83  68  60 CALM      29.91F
BLAINE         PTSUNNY   86  70  58 SW5       29.93S HX  90
LAKEVILLE      MOSUNNY   84  70  61 S3        29.94F
EDEN PRAIRIE   CLOUDY    84  70  62 SE7       29.91F
SOUTH ST PAUL  CLOUDY    85  68  56 S6        29.93S
LAKE ELMO      PTSUNNY   82  72  69 S6        29.95S
$$
MNZ001>005-007-008-013>017-022>024-027-028-232300-
   Northwest Minnesota

CITY           SKY/WX    TMP DP  RH WIND       PRES   REMARKS
BEMIDJI        CLOUDY    56  52  86 N8        30.02F
HALLOCK          N/A     61  48  63 N15       30.05R
ROSEAU         CLOUDY    57  54  88 N9        30.05R
WARROAD        CLOUDY    57  54  88 NW3       30.05R
THIEF RVR FALL CLOUDY    58  51  78 NE3       30.08R
CROOKSTON      CLOUDY    61  52  72 N6        30.07R
FOSSTON        CLOUDY    54  52  94 N8        30.05S
DETROIT LAKES  CLOUDY    55  52  88 N8        30.03S
MOORHEAD       CLOUDY    61  52  72 N13G18    30.03S
PARK RAPIDS    CLOUDY    58  54  86 N9        30.01R
MAHNOMEN       CLOUDY    56  51  82 NE9       30.03S
$$
MNZ006-009>011-018-025>026-232300-
   North Central Minnesota

CITY           SKY/WX    TMP DP  RH WIND       PRES   REMARKS
BAUDETTE       CLOUDY    56  54  93 N5        30.03F
FLAG ISLAND    CLOUDY    55  52  88 N7        30.03S
INTL FALLS     CLOUDY    57  54  89 W6        30.03R
WASKISH        CLOUDY    57  54  88 NW5       30.04R
BIG FORK       CLOUDY    61  55  82 N5        30.02R
LONGVILLE      CLOUDY    57  55  94 N5        30.00F
GRAND RAPIDS   CLOUDY    62  58  86 NW9       30.03R
CRANE LAKE     CLOUDY    61  57  88 NW6       30.03R
ORR            CLOUDY    61  54  77 NW6       29.99R
WALKER         CLOUDY    55  54  94 N3        30.02R
$$
MNZ012-019>021-037-232300-
   Northeast Minnesota

CITY           SKY/WX    TMP DP  RH WIND       PRES   REMARKS
DULUTH         CLOUDY    75  70  84 N8        29.96S
ELY            CLOUDY    68  61  77 W5        29.99S
HIBBING        CLOUDY    65  60  84 NW8       29.99S
EVELETH        PTSUNNY   68  60  74 N7        30.00S
DULUTH HARBOR  CLOUDY    82  73  74 SW7       29.92S
GRAND MARAIS     N/A     67  64  90 CALM      29.92S
$$
MNZ029>031-032-039>041-046>048-054>057-064-232300-
   West Central Minnesota

CITY           SKY/WX    TMP DP  RH WIND       PRES   REMARKS
FERGUS FALLS   CLOUDY    57  55  94 NE8       30.00R
WHEATON        RAIN      55  52  88 NW5       30.05R
ALEXANDRIA     LGT RAIN  60  59  96 N6        29.98S
ELBOW LAKE     CLOUDY    56  55  94 NE5       30.01R
WADENA         CLOUDY    57  57 100 NE6       30.01R
GLENWOOD       TSTM      61  61 100 N6        29.96F
APPLETON       TSTM      55  54  94 N10       29.96F
BENSON         LGT RAIN  57  55  94 N13       29.99R
ORTONVILLE     TSTM      54  52  94 N10G16    29.98F
MADISON        TSTM      57  57 100 NW6       29.99F
WILLMAR        TSTM      64  64 100 E8        29.95F
$$
MNZ033>034-036-042>043-049>051-058-059-232300-
   Central Minnesota

CITY           SKY/WX    TMP DP  RH WIND       PRES   REMARKS
ST CLOUD       CLOUDY    70  66  87 N5        29.95F
SAUK CENTRE    TSTM      63  62  97 E6        29.97S
PAYNESVILLE    CLOUDY    67  63  88 NW6       29.97F THUNDER
AITKIN         CLOUDY    68  63  83 CALM      29.97S
PINE RIVER     CLOUDY    57  54  88 N7        30.03S
BRAINERD       LGT RAIN  65  63  93 VRB3      29.96F
STAPLES        CLOUDY    57  57 100 N7        30.00R
LITTLE FALLS   CLOUDY    64  59  82 CALM      29.97F
LITCHFIELD     CLOUDY    70  66  88 N8        29.95F
BUFFALO        CLOUDY    81  68  65 N3        29.94F
MAPLE LAKE     CLOUDY    76  70  82 N7        29.95F
HUTCHINSON     MOSUNNY   75  69  80 NW9       29.94F
$$
MNZ037-044-045-052-053-232300-
   East Central Minnesota

CITY           SKY/WX    TMP DP  RH WIND       PRES   REMARKS
PRINCETON      CLOUDY    75  72  88 NW8       29.96S
MORA           CLOUDY    70  64  83 CALM      29.99R
RUSH CITY      CLOUDY    82  70  68 CALM      29.95R
MOOSE LAKE     PTSUNNY   73  70  88 CALM      29.95R
HINCKLEY       FAIR      79  73  83 NW6       29.96R
CLOQUET        CLOUDY    75  66  73 NW8       29.97S
MCGREGOR       CLOUDY    70  64  83 NW5       29.99R
$$
MNZ071>073-080-081-089-090-097-098-232300-
   Southwest Minnesota

CITY           SKY/WX    TMP DP  RH WIND       PRES   REMARKS
MONTEVIDEO     TSTM      57  57 100 NE9       29.96S
GRANITE FALLS  CLOUDY    64  61  92 NW10      29.95R
CANBY          TSTM      56  55  96 NE12      29.95F VSB 1/2
MARSHALL       CLOUDY    63  57  82 NW10      29.97R
REDWOOD FALLS  LGT RAIN  67  61  81 NE7       29.93F
OLIVIA         CLOUDY    70  63  78 NE8       29.93F
PIPESTONE      CLOUDY    64  59  82 NE13G18   29.94S
WORTHINGTON    LGT RAIN  69  65  86 NE13      29.92S
JACKSON        PTSUNNY   86  64  48 CALM      29.92F
TRACY          CLOUDY    65  60  82 NE6       29.95S
SLAYTON        CLOUDY    65  52  64 N6        29.96R
$$
MNZ065>067-074>077-082>085-091>093-232300-
   South Central Minnesota

CITY           SKY/WX    TMP DP  RH WIND       PRES   REMARKS
MANKATO        CLOUDY    87  69  54 S10       29.91F HX  91
NEW ULM        PTSUNNY   77  66  69 N5        29.90F
ST JAMES       PTSUNNY   88  64  45 S8        29.91F
FAIRMONT       CLOUDY    88  66  48 S15       29.91F HX  90
FARIBAULT      MOSUNNY   86  70  58 SE7       29.94F HX  90
OWATONNA       MOSUNNY   88  68  51 S10       29.94F HX  91
WASECA         MOSUNNY   84  64  51 S9G17     29.94F
ALBERT LEA     SUNNY     90  64  43 S9G16     29.95S HX  91
$$
MNZ078>079-086>088-094>096-232300-
   Southeast Minnesota

CITY           SKY/WX    TMP DP  RH WIND       PRES   REMARKS
ROCHESTER      MOSUNNY   87  66  49 S14       29.98S
RED WING       MOSUNNY   90  63  40 S6        29.93S HX  90
STANTON        MOSUNNY   88  68  51 S6        29.93S HX  91
DODGE CENTER   MOSUNNY   90  63  40 S13G20    29.97S HX  90
WINONA         SUNNY     90  63  40 S6        29.96S HX  90
AUSTIN         SUNNY     88  63  42 S13G18    29.96S
PRESTON        SUNNY     87  61  41 S12       29.99S
$$
ABBREVIATIONS USED IN REMARKS
   TC - TEMPERATURES IN CELSIUS
  WCI - WIND CHILL INDEX
   HX - HEAT INDEX
  VSB - VISIBILITY
$$



USA.gov is the U.S. government's official web portal to all federal, state and local government web resources and services.